TimeEST,TemperatureF,Dew PointF,Humidity,Sea Level PressureIn,VisibilityMPH,Wind Direction,Wind SpeedMPH,Gust SpeedMPH,PrecipitationIn,Events,Conditions,WindDirDegrees,DateUTC
12:54 AM,41.0,35.6,81,29.94,10.0,WSW,13.8,-,N/A,,Clear,250,2013-01-20 05:54:00
1:54 AM,42.1,32.0,67,29.98,10.0,West,23.0,31.1,N/A,,Partly Cloudy,280,2013-01-20 06:54:00
2:54 AM,39.0,30.0,70,30.02,10.0,WNW,17.3,31.1,N/A,,Partly Cloudy,290,2013-01-20 07:54:00
3:54 AM,34.0,21.9,61,30.08,10.0,WNW,26.5,33.4,N/A,,Partly Cloudy,300,2013-01-20 08:54:00
4:54 AM,30.0,12.0,47,30.11,10.0,WNW,23.0,29.9,N/A,,Clear,300,2013-01-20 09:54:00
5:54 AM,27.0,12.0,53,30.13,10.0,WNW,16.1,28.8,N/A,,Clear,300,2013-01-20 10:54:00
6:54 AM,24.1,10.0,55,30.17,10.0,WNW,20.7,28.8,N/A,,Clear,300,2013-01-20 11:54:00
7:54 AM,23.0,10.9,60,30.21,10.0,NW,16.1,25.3,N/A,,Partly Cloudy,310,2013-01-20 12:54:00
8:54 AM,21.9,10.0,60,30.24,10.0,WNW,17.3,-,N/A,,Scattered Clouds,300,2013-01-20 13:54:00
9:54 AM,21.9,9.0,58,30.27,10.0,WNW,19.6,-,N/A,,Mostly Cloudy,300,2013-01-20 14:54:00
10:54 AM,23.0,10.9,60,30.29,10.0,NW,13.8,-,N/A,,Mostly Cloudy,320,2013-01-20 15:54:00
11:54 AM,26.1,12.0,55,30.29,10.0,NW,6.9,-,N/A,,Scattered Clouds,320,2013-01-20 16:54:00
12:54 PM,27.0,10.0,49,30.27,10.0,NW,10.4,-,N/A,,Scattered Clouds,310,2013-01-20 17:54:00
1:54 PM,27.0,10.0,49,30.24,10.0,West,9.2,-,N/A,,Mostly Cloudy,260,2013-01-20 18:54:00
2:54 PM,28.9,10.0,45,30.23,10.0,NW,5.8,-,N/A,,Overcast,310,2013-01-20 19:54:00
3:54 PM,28.9,10.0,45,30.25,10.0,WNW,12.7,-,N/A,,Overcast,300,2013-01-20 20:54:00
4:54 PM,26.1,10.0,51,30.27,10.0,NW,10.4,-,N/A,,Overcast,310,2013-01-20 21:54:00
5:54 PM,25.0,10.9,55,30.26,10.0,WNW,8.1,-,N/A,,Overcast,290,2013-01-20 22:54:00
6:54 PM,25.0,10.9,55,30.27,10.0,WNW,10.4,-,N/A,,Overcast,300,2013-01-20 23:54:00
7:54 PM,24.1,12.9,62,30.26,10.0,West,8.1,-,N/A,,Overcast,280,2013-01-21 00:54:00
8:54 PM,24.1,12.9,62,30.25,10.0,WNW,9.2,-,N/A,,Overcast,300,2013-01-21 01:54:00
9:54 PM,23.0,12.9,65,30.25,10.0,NW,10.4,-,N/A,,Overcast,310,2013-01-21 02:54:00
10:54 PM,23.0,12.0,63,30.25,10.0,WNW,9.2,-,N/A,,Overcast,300,2013-01-21 03:54:00
11:54 PM,21.9,12.9,68,30.23,9.0,WNW,11.5,-,0.00,Snow,Light Snow,300,2013-01-21 04:54:00